Massena, NY

5:04 PM EST on November 14, 2019 (GMT -0500)
Massena International-Richards

Weather History for KMSS - July, 2019

Change the Weather History Date:

Tuesday, July 23, 2019

  Actual Average Record
Temperature  
Mean Temperature 67 °F 69 °F  
Max Temperature 80 °F 80 °F 92 °F (1952)
Min Temperature 53 °F 58 °F 47 °F (1962)
Degree Days  
Heating Degree Days 0 1  
Month to date heating degree days 0 23  
Since 1 June heating degree days 97 119  
Since 1 July heating degree days 0 23  
Cooling Degree Days 2 5  
Month to date cooling degree days 168 112  
Year to date cooling degree days 227 201  
Since 1 June cooling degree days 226 187  
Growing Degree Days 16 (Base 50)    
Moisture  
Dew Point 55 °F    
Average Humidity 68    
Maximum Humidity 100    
Minimum Humidity 35    
Precipitation  
Precipitation 0.00 in 0.13 in 1.62 in (1972)
Month to date precipitation 1.06 2.62  
Year to date precipitation 15.55 18.07  
Sea Level Pressure  
Sea Level Pressure 29.88 in    
Wind  
Wind Speed 4 mph (WNW)    
Max Wind Speed 16 mph    
Max Gust Speed 21 mph    
Visibility 6 miles    
Events Fog    
T = Trace of Precipitation, MM = Missing Value Source: NWS Daily Summary

Daily Weather History Graph

Daily Weather History Graph

Search for Another Location

Airport or City:

Astronomy

Jul. 23, 2019 Rise Set
Actual Time 5:34 AM EDT 8:36 PM EDT
Civil Twilight 4:59 AM EDT 9:11 PM EDT
Nautical Twilight 4:15 AM EDT 9:55 PM EDT
Astronomical Twilight 3:21 AM EDT 10:48 PM EDT
Moon No Moon Rise 12:01 PM EDT (7/23)
Length of Visible Light 16h 11m
Length of Day
15h 01m
Waning Gibbous, 63% of the Moon is Illuminated
Jul 23
Waning Gibbous
Jul 24
Last Quarter
Jul 31
New
Aug 7
First Quarter
Aug 15
Full

Hourly Weather History & Observations

Time (EDT) Temp. Heat Index Dew Point Humidity Pressure Visibility Wind Dir Wind Speed Gust Speed Precip Events Conditions
12:53 AM 59.0 °F - 57.0 °F 93% 29.87 in 10.0 mi Calm Calm - N/A   Clear
1:48 AM 59.0 °F - 55.4 °F 88% 29.87 in 10.0 mi Calm Calm - N/A   Partly Cloudy
1:53 AM 59.0 °F - 57.0 °F 93% 29.87 in 10.0 mi Calm Calm - N/A   Clear
2:20 AM 57.9 °F - 55.9 °F 93% 29.87 in 4.0 mi South 3.5 mph - N/A   Partly Cloudy
2:53 AM 59.0 °F - 57.0 °F 93% 29.87 in 6.0 mi Calm Calm - N/A   Clear
2:56 AM 59.0 °F - 57.0 °F 93% 29.87 in 1.2 mi Calm Calm - N/A   Partly Cloudy
3:03 AM 59.0 °F - 57.0 °F 93% 29.86 in 0.5 mi Calm Calm - N/A Fog Fog
3:10 AM 59.0 °F - 57.0 °F 93% 29.86 in 1.5 mi Calm Calm - N/A   Partly Cloudy
3:18 AM 57.9 °F - 55.9 °F 93% 29.86 in 2.5 mi Calm Calm - N/A   Partly Cloudy
3:29 AM 57.0 °F - 55.9 °F 96% 29.86 in 10.0 mi Calm Calm - N/A   Clear
3:50 AM 57.2 °F - 55.4 °F 94% 29.86 in 4.0 mi Calm Calm - N/A   Scattered Clouds
3:53 AM 55.9 °F - 55.0 °F 97% 29.86 in 2.5 mi Calm Calm - N/A   Scattered Clouds
3:55 AM 55.9 °F - 55.0 °F 97% 29.86 in 1.0 mi Calm Calm - N/A   Mist
4:02 AM 57.0 °F - 55.0 °F 93% 29.86 in 0.5 mi Calm Calm - N/A Fog Fog
4:07 AM 55.0 °F - 54.0 °F 96% 29.86 in 1.8 mi Calm Calm - N/A   Mostly Cloudy
4:09 AM 55.0 °F - 54.0 °F 96% 29.86 in 4.0 mi Calm Calm - N/A   Mostly Cloudy
4:13 AM 55.9 °F - 54.0 °F 93% 29.86 in 1.5 mi SSE 3.5 mph - N/A   Mostly Cloudy
4:20 AM 55.9 °F - 54.0 °F 93% 29.86 in 0.8 mi Calm Calm - N/A   Mist
4:53 AM 54.0 °F - 53.1 °F 97% 29.86 in 0.5 mi Calm Calm - N/A Fog Fog
5:39 AM 53.1 °F - 52.0 °F 96% 29.87 in 1.8 mi Calm Calm - N/A   Scattered Clouds
5:46 AM 54.0 °F - 52.0 °F 93% 29.87 in 6.0 mi Calm Calm - N/A   Scattered Clouds
5:53 AM 54.0 °F - 52.0 °F 93% 29.88 in 5.0 mi Calm Calm - N/A   Mostly Cloudy
6:04 AM 54.0 °F - 53.1 °F 97% 29.88 in 8.0 mi Calm Calm - N/A   Scattered Clouds
6:07 AM 54.0 °F - 53.1 °F 97% 29.88 in 1.0 mi Calm Calm - N/A   Mist
6:14 AM 54.0 °F - 52.0 °F 93% 29.87 in 0.2 mi Calm Calm - N/A Fog Fog
6:27 AM 54.0 °F - 52.0 °F 93% 29.88 in 1.2 mi Calm Calm - N/A   Scattered Clouds
6:29 AM 54.0 °F - 52.0 °F 93% 29.88 in 2.0 mi Calm Calm - N/A   Scattered Clouds
6:36 AM 54.0 °F - 53.1 °F 97% 29.87 in 6.0 mi Calm Calm - N/A   Partly Cloudy
6:40 AM 54.0 °F - 53.1 °F 97% 29.87 in 1.8 mi Calm Calm - N/A   Clear
6:49 AM 53.6 °F - 53.6 °F 100% 29.88 in 3.0 mi Calm Calm - N/A   Clear
6:53 AM 55.0 °F - 53.1 °F 93% 29.88 in 9.0 mi Calm Calm - N/A   Clear
7:53 AM 61.0 °F - 59.0 °F 93% 29.88 in 10.0 mi SSW 4.6 mph - N/A   Clear
8:53 AM 68.0 °F - 61.0 °F 78% 29.89 in 10.0 mi WSW 4.6 mph - N/A   Clear
9:53 AM 72.0 °F - 61.0 °F 68% 29.88 in 10.0 mi South 5.8 mph - N/A   Clear
10:53 AM 75.0 °F - 59.0 °F 57% 29.87 in 10.0 mi Calm Calm - N/A   Clear
11:53 AM 73.9 °F - 59.0 °F 59% 29.86 in 10.0 mi WNW 10.4 mph - N/A   Scattered Clouds
12:53 PM 77.0 °F - 59.0 °F 54% 29.87 in 10.0 mi WNW 10.4 mph - N/A   Partly Cloudy
1:14 PM 78.1 °F - 55.9 °F 46% 29.86 in 10.0 mi NW 10.4 mph - N/A   Partly Cloudy
1:53 PM 79.0 °F - 55.9 °F 45% 29.86 in 10.0 mi NW 8.1 mph - N/A   Partly Cloudy
2:53 PM 80.1 °F 80.1 °F 55.0 °F 42% 29.86 in 10.0 mi West 13.8 mph - N/A   Clear
3:53 PM 80.1 °F - 50.0 °F 35% 29.86 in 10.0 mi NNW 12.7 mph 19.6 mph N/A   Clear
4:53 PM 79.0 °F - 54.0 °F 42% 29.87 in 10.0 mi WNW 12.7 mph - N/A   Clear
5:53 PM 75.9 °F - 54.0 °F 46% 29.88 in 10.0 mi NNW 5.8 mph - N/A   Clear
6:53 PM 75.0 °F - 55.0 °F 50% 29.90 in 10.0 mi North 6.9 mph - N/A   Mostly Cloudy
7:53 PM 73.0 °F - 54.0 °F 51% 29.91 in 10.0 mi NNW 4.6 mph - N/A   Partly Cloudy
8:53 PM 64.0 °F - 57.0 °F 78% 29.93 in 10.0 mi Calm Calm - N/A   Clear
9:53 PM 66.9 °F - 53.1 °F 61% 29.95 in 10.0 mi North 4.6 mph - N/A   Clear
10:53 PM 60.1 °F - 55.0 °F 83% 29.96 in 10.0 mi Calm Calm - N/A   Clear
11:53 PM 57.0 °F - 53.1 °F 87% 29.96 in 10.0 mi Calm Calm - N/A   Clear